Location: Caltech
(34.1382°N, 118.1253°W)
Time: 23:57:21
(UTC-08:00)

OAO 2 Rocket - Visible Passes

Search period start: 18 December 2014 00:00
Search period end: 28 December 2014 00:00
Orbit: 678 x 748 km, 35.0° (Epoch: 18 December)

Date Brightness Start Highest point End Pass type
(mag) Time Alt. Az. Time Alt. Az. Time Alt. Az.
18 Dec 3.1 04:50:42 80° WNW 04:50:57 86° N 04:55:59 10° E visible
19 Dec 5.4 03:56:44 24° E 03:56:44 24° E 03:58:42 10° E visible
19 Dec 3.2 05:35:44 25° W 05:38:37 82° N 05:43:40 10° E visible
20 Dec 3.3 04:41:44 73° NE 04:41:44 73° NE 04:46:21 10° E visible
20 Dec 3.5 06:21:15 10° W 06:26:13 74° SSW 06:31:16 10° ESE visible
21 Dec 5.7 03:47:43 19° E 03:47:43 19° E 03:49:04 10° E visible
21 Dec 3.2 05:26:43 33° W 05:28:59 88° S 05:34:01 10° ESE visible
22 Dec 3.7 04:32:41 59° E 04:32:41 59° E 04:36:44 10° E visible
22 Dec 3.8 06:11:41 10° W 06:16:29 52° SSW 06:21:22 10° SE visible
23 Dec 6.0 03:38:39 15° E 03:38:39 15° E 03:39:26 10° E visible
23 Dec 3.3 05:17:39 40° W 05:19:19 68° SSW 05:24:16 10° ESE visible
24 Dec 4.2 04:23:38 45° ESE 04:23:38 45° ESE 04:27:04 10° ESE visible
24 Dec 4.3 06:02:38 12° W 06:06:40 34° SSW 06:11:09 10° SE visible
25 Dec 6.3 03:29:38 11° E 03:29:38 11° E 03:29:49 10° E visible
25 Dec 3.7 05:08:38 41° SW 05:09:33 47° SSW 05:14:18 10° SE visible
26 Dec 4.9 04:14:40 31° SE 04:14:40 31° SE 04:17:17 10° ESE visible
26 Dec 5.0 05:53:40 12° WSW 05:56:45 21° SSW 06:00:24 10° SSE visible
27 Dec 4.4 04:59:44 30° SSW 04:59:44 30° SSW 05:03:59 10° SSE visible
